Regional Weather Roundup
Issued by NWS Northern Indiana

Home | Current Version | Previous Version | Graphics & Text | Print | Product List | Glossary On
Versions: 1 2 3 4 5 6 7 8 9 10 11 12 13 14 15 16 17 18 19 20 21 22 23 24 25 26 27 28 29 30 31 32 33 34 35 36 37 38 39 40 41 42 43 44 45 46 47 48 49 50
000
ASUS43 KIWX 021500
RWRIWX

KIWX WEATHER ROUNDUP
NATIONAL WEATHER SERVICE NORTHERN INDIANA
1100 AM EDT WED SEP 02 2015

NOTE: "FAIR" INDICATES FEW OR NO CLOUDS BELOW 12,000 FEET WITH NO
SIGNIFICANT WEATHER AND/OR OBSTRUCTIONS TO VISIBILITY.

* THESE STATIONS ARE NOT UNDER NWS QUALITY CONTROL. THEY ALSO MAY NOT
  REPORT WEATHER SUCH AS PRECIPITATION OR FOG.

INZ001>027-021600-
NORTHERN INDIANA

CITY           SKY/WX    TMP DP  RH WIND       PRES   REMARKS
GARY*          SUNNY     81  68  65 W7        30.08F
KNOX*          SUNNY     79  70  73 SW6       30.10R
SOUTH BEND     SUNNY     79  70  74 SW7       30.10R
GOSHEN         SUNNY     80  71  74 SW6       30.09S
MONTICELLO*    SUNNY     81  73  78 SW5       30.10S
WARSAW*        SUNNY     79  70  73 SW5       30.11S
ANGOLA*        SUNNY     82  72  69 W9        30.09S
FORT WAYNE     MOSUNNY   80  71  74 W9        30.11S

$$
INZ028>050-021600-
CENTRAL INDIANA

CITY           SKY/WX    TMP DP  RH WIND       PRES   REMARKS
LAFAYETTE      SUNNY     80  70  71 VRB5      30.11S
KOKOMO*        SUNNY     82  70  65 NW12      30.12S
MUNCIE*        MOSUNNY   77  70  79 W8        30.14R
INDIANAPOLIS   MOSUNNY   82  68  62 W7        30.13S

$$
MIZ043>046-050>051-056>058-064>065-071>073-077>080-021600-
SOUTHWEST LOWER MICHIGAN

CITY           SKY/WX    TMP DP  RH WIND       PRES   REMARKS
BATTLE CREEK   MOSUNNY   82  71  69 W8        30.07S
BENTON HARBOR  MOSUNNY   80  70  71 W8        30.07S
COLDWATER*     SUNNY     80  71  74 SW7       30.08F
HILLSDALE*     SUNNY     81  73  77 W7        30.08F
HOLLAND        SUNNY     81  71  71 SW12      30.06S
GRAND RAPIDS   MOSUNNY   81  71  71 W9        30.05S
KALAMAZOO      SUNNY     82  70  66 W8        30.07S
STURGIS*       SUNNY     79  72  78 W7        30.08S
THREE RIVERS*  FAIR      82  71  70 SW5       30.08S

$$
OHZ001>008-015>018-024>025-021600-
NORTHWEST OHIO

CITY           SKY/WX    TMP DP  RH WIND       PRES   REMARKS
DEFIANCE       MOSUNNY   77  70  79 SW8       30.09F
FINDLAY        PTSUNNY   80  70  71 W9        30.10R
TOLEDO EXPRESS CLOUDY    75  69  81 NE6       30.09R
TOLEDO METCALF CLOUDY    77  68  73 W8        30.11R
LIMA           MOSUNNY   79  69  71 SW7       30.12S

$$
AND FOR LAKE MICHIGAN COASTAL AND OPEN LAKE BUOY OBSERVATIONS

STATION/POSITION TEMP    WIND        PRES    VSBY  WAVE
                 AIR SEA DIR/SP/G                  HT/PER
                 (F)     (DEG/KT/KT) (MB)    (MI)  (FT/S)
CALUMET HARBOR    78     230/  5/  8   N/A
MICHIGAN CITY     75     200/  8/  9   N/A
BURNS HARBOR      76     230/  8/ 10 1019.0S
SAINT JOSEPH      75     190/ 10/ 13 1018.6R
SOUTH LAKE BUOY   72 70  210/ 10/ 12 1016.8F
4 MI NW BRIDGMAN  73 72  260/  8/  8   N/A           1/ 3
MICHIGAN CITY     74 72  230/  6/  8   N/A           1/ 3

$$
&&


USA.gov is the U.S. government's official web portal to all federal, state and local government web resources and services.